Overview Statistics Trail Chart Weather Telemetry Raw packets
 

This is the latest recevied weather packets stored in our database for station/object W6MAF. If no packets are shown the sender has not sent any weather packets the latest 10 day(s).

<< 71 72 73 74 75 76 77 >>
Time Temp. Humidity Pressure Rain* Wind** Luminosity Snow
1788155787 19.44° C 53% - 0 mm 4.92 m/s, 214° - -
1788155489 19.44° C 48% - 0 mm 4.92 m/s, 200° - -
1788155191 20° C 45% - 0 mm 4.47 m/s, 207° - -
1788154894 20.56° C 40% - 0 mm 5.36 m/s, 212° - -
1788154596 21.11° C 35% - 0 mm 4.92 m/s, 208° - -
1788154295 21.11° C 30% - 0 mm 4.92 m/s, 228° - -
1788153997 21.67° C 24% - 0 mm 4.47 m/s, 194° - -
1788153700 21.67° C 23% - 0 mm 5.36 m/s, 156° - -
1788153402 21.67° C 23% - 0 mm 6.71 m/s, 174° - -
1788153104 22.22° C 22% - 0 mm 6.26 m/s, 155° - -
1788152505 22.22° C 21% - 0 mm 6.26 m/s, 195° - -
1788152208 22.22° C 21% - 0 mm 5.81 m/s, 177° - -
1788151612 21.67° C 22% - 0 mm 7.15 m/s, 177° - -
1788151316 21.67° C 23% - 0 mm 7.6 m/s, 183° - -
1788151315 21.67° C 23% - 0 mm 7.6 m/s, 183° - -
1788151017 21.67° C 24% - 0 mm 8.49 m/s, 186° - -
1788150716 21.67° C 24% - 0 mm 7.6 m/s, 159° - -
1788150120 21.67° C 24% - 0 mm 8.05 m/s, 176° - -
1788149823 21.67° C 24% - 0 mm 6.71 m/s, 180° - -
1788149525 21.67° C 25% - 0 mm 7.15 m/s, 172° - -
1788149227 21.67° C 25% - 0 mm 6.26 m/s, 177° - -
1788148926 22.22° C 24% - 0 mm 6.26 m/s, 159° - -
1788148629 22.22° C 23% - 0 mm 5.36 m/s, 160° - -
1788148331 22.78° C 22% - 0 mm 5.36 m/s, 174° - -
1788148033 23.33° C 20% - 0 mm 4.47 m/s, 160° - -

* Rain latest hour (hover to see other rain measurements)
** Current wind speed in m/s (hover to see current wind gust speed)